Location: Bon Acre
(42.6442°N, 73.5758°W)
Time: 09:38:44
(UTC+00:00)

Cosmos 2266 Rocket - Pass Details

Date: 14 December 2025
Orbit: 933 x 1007 km, 82.9° (Epoch: 21 January)

Event Time Altitude Azimuth Distance (km) Brightness Sun altitude
Rises 22:19:42 0° 349° (NNW) 3,639 6.9 -10.4°
Reaches altitude 10° 22:22:15 10° 346° (NNW) 2,680 6.2 -10.8°
Maximum altitude 22:28:15 63° 267° (W) 1,047 4.5 -11.9°
Drops below altitude 10° 22:34:09 10° 188° (S) 2,634 6.6 -12.9°
Sets 22:36:38 0° 185° (S) 3,572 7.3 -13.3°
